Jacksonville, IL

9:18 AM CDT on April 24, 2017 (GMT -0500)
Jacksonville Municipal

Weather History for KIJX - February, 2014

Change the Weather History Date:

Wednesday, February 19, 2014

  Actual Average (KSPI) Record (KSPI)
Temperature  
Mean Temperature 38 °F -  
Max Temperature 46 °F 40 °F 71 °F (2017)
Min Temperature 29 °F 24 °F -9 °F (1979)
Degree Days  
Heating Degree Days 28    
Moisture  
Dew Point 31 °F    
Average Humidity 77    
Maximum Humidity 92    
Minimum Humidity 55    
Precipitation  
Precipitation 0.05 in - - ()
Sea Level Pressure  
Sea Level Pressure 29.93 in    
Wind  
Wind Speed 8 mph (WSW)    
Max Wind Speed 15 mph    
Max Gust Speed 22 mph    
Visibility 10 miles    
Events Rain , Thunderstorm    
Averages and records for this station are not official NWS values.
T = Trace of Precipitation, MM = Missing Value Source: NWS Daily Summary

Daily Weather History Graph

Daily Weather History Graph

Search for Another Location

Airport or City:

Trip Planner

Search our weather history database for the weather conditions in past years. The results will help you decide how hot, cold, wet, or windy it might be!

Date:

Astronomy

Feb. 19, 2014 Rise Set
Actual Time 6:48 AM CST 5:41 PM CST
Civil Twilight 6:20 AM CST 6:09 PM CST
Nautical Twilight 5:49 AM CST 6:40 PM CST
Astronomical Twilight 5:18 AM CST 7:12 PM CST
Moon 10:34 PM CST (2/19) 8:54 AM CST (2/19)
Length of Visible Light 11h 48m
Length of Day
10h 53m
Waning Gibbous, 79% of the Moon is Illuminated
Feb 19
Waning Gibbous
Feb 22
Last Quarter
Mar 1
New
Mar 8
First Quarter
Mar 16
Full

Hourly Weather History & Observations

Time (CST) Temp. Windchill Dew Point Humidity Pressure Visibility Wind Dir Wind Speed Gust Speed Precip Events Conditions
12:15 AM 43.0 °F 36.8 °F 32.0 °F 65% 29.79 in 10.0 mi WNW 11.5 mph 21.9 mph N/A   Clear
12:35 AM 41.9 °F 35.4 °F 31.3 °F 66% 29.80 in 10.0 mi WNW 11.5 mph 18.4 mph N/A   Clear
12:55 AM 40.5 °F 34.6 °F 31.1 °F 69% 29.81 in 10.0 mi NW 9.2 mph - N/A   Clear
1:15 AM 39.7 °F 34.9 °F 30.9 °F 71% 29.82 in 10.0 mi WNW 6.9 mph - N/A   Clear
1:35 AM 40.3 °F 33.9 °F 31.1 °F 70% 29.83 in 10.0 mi WNW 10.4 mph - N/A   Clear
1:55 AM 36.5 °F 29.2 °F 30.6 °F 79% 29.84 in 10.0 mi West 10.4 mph - N/A   Clear
2:15 AM 35.6 °F 28.0 °F 30.4 °F 81% 29.85 in 10.0 mi West 10.4 mph - N/A   Clear
2:35 AM 34.5 °F 27.3 °F 30.0 °F 84% 29.85 in 10.0 mi West 9.2 mph - N/A   Clear
2:55 AM 34.5 °F 27.3 °F 30.2 °F 84% 29.86 in 10.0 mi West 9.2 mph - N/A   Clear
3:15 AM 36.0 °F 29.0 °F 30.9 °F 82% 29.87 in 10.0 mi West 9.2 mph - N/A   Clear
3:35 AM 33.8 °F 27.0 °F 29.3 °F 84% 29.88 in 10.0 mi West 8.1 mph - N/A   Clear
3:55 AM 36.5 °F 31.0 °F 30.6 °F 79% 29.88 in 10.0 mi West 6.9 mph - N/A   Clear
4:15 AM 32.9 °F 25.3 °F 28.4 °F 84% 29.89 in 10.0 mi West 9.2 mph - N/A   Clear
4:35 AM 32.0 °F 26.4 °F 28.4 °F 87% 29.90 in 10.0 mi West 5.8 mph - N/A   Clear
4:55 AM 36.0 °F 30.3 °F 30.6 °F 81% 29.90 in 10.0 mi West 6.9 mph - N/A   Clear
5:15 AM 35.6 °F 30.7 °F 30.2 °F 81% 29.91 in 10.0 mi West 5.8 mph - N/A   Clear
5:35 AM 33.4 °F 28.1 °F 30.0 °F 87% 29.91 in 10.0 mi WSW 5.8 mph - N/A   Clear
5:55 AM 34.9 °F 29.9 °F 30.2 °F 83% 29.93 in 10.0 mi West 5.8 mph - N/A   Clear
6:15 AM 32.0 °F 25.6 °F 28.2 °F 86% 29.93 in 10.0 mi West 6.9 mph - N/A   Clear
6:35 AM 29.3 °F 21.5 °F 26.1 °F 88% 29.93 in 10.0 mi West 8.1 mph - N/A   Clear
6:55 AM 34.0 °F 27.2 °F 30.2 °F 86% 29.95 in 10.0 mi West 8.1 mph - N/A   Clear
7:15 AM 34.7 °F 28.8 °F 30.2 °F 84% 29.96 in 10.0 mi West 6.9 mph - N/A   Clear
7:35 AM 35.6 °F 29.2 °F 30.4 °F 81% 29.97 in 10.0 mi West 8.1 mph - N/A   Clear
7:55 AM 33.3 °F 27.9 °F 28.9 °F 84% 29.97 in 10.0 mi West 5.8 mph - N/A   Clear
8:15 AM 33.3 °F 28.9 °F 29.1 °F 85% 29.97 in 10.0 mi West 4.6 mph - N/A   Clear
8:35 AM 36.7 °F 31.2 °F 30.7 °F 79% 29.99 in 10.0 mi West 6.9 mph - N/A   Clear
8:55 AM 37.9 °F 31.5 °F 31.1 °F 76% 30.01 in 10.0 mi West 9.2 mph - N/A   Clear
9:15 AM 38.5 °F 32.7 °F 31.1 °F 75% 30.01 in 10.0 mi West 8.1 mph - N/A   Clear
9:35 AM 38.5 °F 33.4 °F 31.1 °F 75% 30.01 in 10.0 mi West 6.9 mph - N/A   Clear
9:55 AM 37.8 °F 32.5 °F 31.1 °F 77% 30.01 in 10.0 mi West 6.9 mph - N/A   Clear
10:15 AM 39.2 °F 34.2 °F 31.1 °F 73% 30.01 in 10.0 mi WSW 6.9 mph - N/A   Clear
10:35 AM 40.1 °F 36.1 °F 30.4 °F 68% 30.01 in 10.0 mi West 5.8 mph - N/A   Clear
10:55 AM 39.6 °F 36.3 °F 30.6 °F 70% 30.01 in 10.0 mi West 4.6 mph - N/A   Clear
11:15 AM 40.6 °F - 30.2 °F 66% 30.00 in 10.0 mi Calm Calm - N/A   Clear
11:35 AM 40.5 °F 37.3 °F 30.4 °F 67% 30.02 in 10.0 mi SSW 4.6 mph - N/A   Clear
11:55 AM 41.0 °F 37.1 °F 30.2 °F 65% 30.03 in 10.0 mi SW 5.8 mph - N/A   Clear
12:15 PM 41.0 °F 35.8 °F 30.6 °F 66% 30.04 in 10.0 mi SSW 8.1 mph - N/A   Clear
12:35 PM 41.5 °F 37.1 °F 30.6 °F 65% 30.03 in 10.0 mi SW 6.9 mph - N/A   Clear
12:55 PM 41.9 °F 37.5 °F 30.7 °F 65% 30.02 in 10.0 mi SW 6.9 mph - N/A   Clear
1:15 PM 42.4 °F 38.8 °F 30.0 °F 61% 30.01 in 10.0 mi SW 5.8 mph - N/A   Clear
1:35 PM 42.6 °F 40.9 °F 30.2 °F 61% 30.01 in 10.0 mi SW 3.5 mph - N/A   Clear
1:55 PM 44.1 °F - 30.6 °F 59% 29.99 in 10.0 mi Calm Calm - N/A   Clear
2:15 PM 46.0 °F - 30.6 °F 55% 30.00 in 10.0 mi Calm Calm - N/A   Clear
2:35 PM 43.7 °F - 31.1 °F 61% 29.99 in 10.0 mi Calm Calm - N/A   Clear
2:55 PM 41.9 °F 38.2 °F 30.2 °F 63% 29.99 in 10.0 mi ENE 5.8 mph - N/A   Clear
3:15 PM 38.8 °F 32.6 °F 31.1 °F 74% 29.98 in 10.0 mi East 9.2 mph - N/A   Clear
3:35 PM 37.4 °F 33.8 °F 31.6 °F 80% 29.98 in 10.0 mi ESE 4.6 mph - N/A   Clear
3:55 PM 38.1 °F 33.7 °F 31.6 °F 77% 29.97 in 10.0 mi East 5.8 mph - N/A   Clear
4:15 PM 38.3 °F 32.5 °F 31.5 °F 76% 29.96 in 10.0 mi East 8.1 mph - N/A   Clear
4:35 PM 37.6 °F 32.3 °F 31.8 °F 80% 29.96 in 10.0 mi ESE 6.9 mph - N/A   Clear
4:55 PM 37.9 °F 33.5 °F 31.6 °F 78% 29.95 in 10.0 mi ESE 5.8 mph - N/A   Clear
5:15 PM 36.0 °F 32.1 °F 31.6 °F 84% 29.95 in 10.0 mi ESE 4.6 mph - N/A   Clear
5:35 PM 36.7 °F 32.9 °F 30.7 °F 79% 29.95 in 10.0 mi East 4.6 mph - N/A   Clear
6:15 PM 38.1 °F 32.3 °F 31.5 °F 77% 29.95 in 10.0 mi SE 8.1 mph - N/A   Clear
6:35 PM 37.4 °F 32.1 °F 31.8 °F 80% 29.96 in 10.0 mi SE 6.9 mph - N/A   Clear
6:55 PM 36.0 °F 29.6 °F 31.8 °F 85% 29.95 in 10.0 mi ESE 8.1 mph - N/A   Clear
7:35 PM 36.3 °F 30.1 °F 32.0 °F 84% 29.93 in 10.0 mi ESE 8.1 mph - N/A   Clear
7:55 PM 37.4 °F 30.3 °F 32.0 °F 81% 29.92 in 10.0 mi SE 10.4 mph - N/A   Clear
8:35 PM 37.8 °F 30.7 °F 32.4 °F 81% 29.89 in 10.0 mi East 10.4 mph - N/A   Clear
8:55 PM 37.8 °F 31.3 °F 32.2 °F 80% 29.90 in 10.0 mi ESE 9.2 mph - N/A   Clear
9:35 PM 37.4 °F 29.8 °F 32.2 °F 81% 29.88 in 10.0 mi ESE 11.5 mph - N/A   Clear
9:55 PM 38.3 °F 30.9 °F 32.2 °F 79% 29.87 in 10.0 mi ESE 11.5 mph - N/A   Clear
10:20 PM 39.0 °F 34.0 °F 32.4 °F 77% 29.89 in 10.0 mi SE 6.9 mph - N/A   Scattered Clouds
10:35 PM 37.9 °F 30.9 °F 32.2 °F 80% 29.86 in 10.0 mi East 10.4 mph - N/A Rain Light Rain
10:50 PM 37.4 °F 34.9 °F 32.5 °F 83% 29.86 in 10.0 mi East 3.5 mph - 0.01 in Rain Light Rain
11:15 PM 35.1 °F 29.3 °F 32.5 °F 91% 29.85 in 10.0 mi NNE 6.9 mph - N/A Rain Light Rain
11:35 PM 35.1 °F 27.9 °F 32.9 °F 92% 29.84 in 10.0 mi NE 9.2 mph - 0.01 in Rain , Thunderstorm Light Thunderstorms and Rain
11:55 PM 36.0 °F 26.7 °F 33.4 °F 91% 29.80 in 7.0 mi NE 15.0 mph - 0.04 in Rain , Thunderstorm Light Thunderstorms and Rain